Time,TemperatureF,DewpointF,PressureIn,WindDirection,WindDirectionDegrees,WindSpeedMPH,WindSpeedGustMPH,Humidity,HourlyPrecipIn,Conditions,Clouds,dailyrainin,SoftwareType,DateUTC
2013-06-17 08:46:00,53.2,51.0,29.97,NNE,18,0.0,5.0,92,0.06,,,0.08,weatherlink.com 1.10,2013-06-17 07:46:00,
2013-06-17 08:57:00,53.2,51.0,29.98,NE,56,0.0,6.0,92,0.04,,,0.08,weatherlink.com 1.10,2013-06-17 07:57:00,
2013-06-17 09:11:00,53.4,51.0,29.98,NE,51,5.0,5.0,92,0.02,,,0.09,weatherlink.com 1.10,2013-06-17 08:11:00,
2013-06-17 09:27:00,53.5,51.0,29.98,East,79,1.0,4.0,92,0.01,,,0.09,weatherlink.com 1.10,2013-06-17 08:27:00,
2013-06-17 09:42:00,53.9,52.0,29.98,ESE,115,0.0,4.0,92,0.01,,,0.09,weatherlink.com 1.10,2013-06-17 08:42:00,
2013-06-17 09:57:00,53.6,51.0,29.98,East,79,0.0,6.0,92,0.01,,,0.09,weatherlink.com 1.10,2013-06-17 08:57:00,
2013-06-17 10:12:00,54.1,52.0,29.98,NNE,32,0.0,4.0,92,0.00,,,0.09,weatherlink.com 1.10,2013-06-17 09:12:00,
2013-06-17 10:27:00,54.0,52.0,29.98,NE,43,2.0,6.0,92,0.00,,,0.09,weatherlink.com 1.10,2013-06-17 09:27:00,
2013-06-17 10:42:00,54.4,52.0,29.97,NNE,29,2.0,5.0,92,0.00,,,0.09,weatherlink.com 1.10,2013-06-17 09:42:00,
2013-06-17 10:57:00,54.8,53.0,29.97,North,352,0.0,4.0,93,0.00,,,0.09,weatherlink.com 1.10,2013-06-17 09:57:00,
2013-06-17 11:12:00,54.9,53.0,29.97,North,9,1.0,2.0,92,0.00,,,0.09,weatherlink.com 1.10,2013-06-17 10:12:00,
2013-06-17 11:27:00,55.0,53.0,29.97,SE,145,0.0,2.0,92,0.00,,,0.09,weatherlink.com 1.10,2013-06-17 10:27:00,
2013-06-17 11:42:00,55.2,53.0,29.98,NE,44,0.0,3.0,92,0.00,,,0.09,weatherlink.com 1.10,2013-06-17 10:42:00,
2013-06-17 11:57:00,55.3,53.0,29.98,ENE,70,0.0,3.0,92,0.00,,,0.09,weatherlink.com 1.10,2013-06-17 10:57:00,
2013-06-17 12:12:00,56.0,54.0,29.99,North,4,0.0,5.0,92,0.00,,,0.09,weatherlink.com 1.10,2013-06-17 11:12:00,
2013-06-17 12:27:00,56.6,54.0,29.98,NNW,339,1.0,4.0,90,0.00,,,0.09,weatherlink.com 1.10,2013-06-17 11:27:00,
2013-06-17 12:42:00,57.7,55.0,29.98,ENE,71,2.0,5.0,89,0.00,,,0.09,weatherlink.com 1.10,2013-06-17 11:42:00,
2013-06-17 12:57:00,58.7,55.0,29.97,North,349,2.0,6.0,87,0.00,,,0.09,weatherlink.com 1.10,2013-06-17 11:57:00,
2013-06-17 13:12:00,59.7,55.0,29.98,East,90,3.0,4.0,84,0.00,,,0.09,weatherlink.com 1.10,2013-06-17 12:12:00,
2013-06-17 13:27:00,60.0,55.0,29.98,SSE,166,0.0,5.0,83,0.00,,,0.09,weatherlink.com 1.10,2013-06-17 12:27:00,
2013-06-17 13:42:00,60.2,55.0,29.99,SSE,150,1.0,5.0,83,0.00,,,0.09,weatherlink.com 1.10,2013-06-17 12:42:00,
2013-06-17 13:57:00,61.0,55.0,29.99,ENE,65,6.0,6.0,81,0.00,,,0.09,weatherlink.com 1.10,2013-06-17 12:57:00,
2013-06-17 14:12:00,60.7,55.0,29.99,NE,44,2.0,5.0,81,0.00,,,0.09,weatherlink.com 1.10,2013-06-17 13:12:00,
2013-06-17 14:27:00,61.6,55.0,29.99,North,11,4.0,6.0,80,0.00,,,0.09,weatherlink.com 1.10,2013-06-17 13:27:00,
2013-06-17 14:42:00,61.9,55.0,29.99,ENE,70,2.0,6.0,78,0.00,,,0.09,weatherlink.com 1.10,2013-06-17 13:42:00,
2013-06-17 14:57:00,62.0,55.0,29.99,SE,137,1.0,5.0,77,0.00,,,0.09,weatherlink.com 1.10,2013-06-17 13:57:00,
2013-06-17 15:12:00,61.2,54.0,29.99,NNW,331,1.0,9.0,77,0.00,,,0.09,weatherlink.com 1.10,2013-06-17 14:12:00,
2013-06-17 15:27:00,61.3,54.0,30.00,NE,48,2.0,5.0,77,0.00,,,0.09,weatherlink.com 1.10,2013-06-17 14:27:00,
2013-06-17 15:42:00,60.4,54.0,30.00,NW,307,0.0,5.0,78,0.00,,,0.09,weatherlink.com 1.10,2013-06-17 14:42:00,
2013-06-17 15:57:00,60.5,54.0,29.99,NNE,27,0.0,5.0,78,0.00,,,0.09,weatherlink.com 1.10,2013-06-17 14:57:00,
2013-06-17 16:12:00,61.3,54.0,29.99,NE,34,1.0,6.0,77,0.00,,,0.09,weatherlink.com 1.10,2013-06-17 15:12:00,
2013-06-17 16:27:00,61.2,54.0,29.99,NNE,23,4.0,5.0,76,0.00,,,0.09,weatherlink.com 1.10,2013-06-17 15:27:00,
2013-06-17 16:42:00,61.6,54.0,29.99,NE,54,3.0,7.0,76,0.00,,,0.09,weatherlink.com 1.10,2013-06-17 15:42:00,
2013-06-17 16:57:00,62.3,54.0,29.98,NE,51,6.0,6.0,74,0.00,,,0.09,weatherlink.com 1.10,2013-06-17 15:57:00,
2013-06-17 17:12:00,62.1,53.0,29.98,NE,38,2.0,9.0,73,0.00,,,0.09,weatherlink.com 1.10,2013-06-17 16:12:00,
2013-06-17 17:27:00,62.1,53.0,29.97,WNW,300,1.0,5.0,73,0.00,,,0.09,weatherlink.com 1.10,2013-06-17 16:27:00,
2013-06-17 17:42:00,62.3,54.0,29.98,ENE,68,1.0,7.0,73,0.00,,,0.09,weatherlink.com 1.10,2013-06-17 16:42:00,
2013-06-17 17:57:00,62.0,53.0,29.98,NE,41,1.0,7.0,73,0.00,,,0.09,weatherlink.com 1.10,2013-06-17 16:57:00,
2013-06-17 18:12:00,62.1,53.0,29.98,East,84,2.0,7.0,72,0.00,,,0.09,weatherlink.com 1.10,2013-06-17 17:12:00,
2013-06-17 18:27:00,62.4,53.0,29.98,NE,53,1.0,4.0,72,0.00,,,0.09,weatherlink.com 1.10,2013-06-17 17:27:00,
2013-06-17 18:42:00,62.3,53.0,29.98,ENE,57,1.0,5.0,72,0.00,,,0.09,weatherlink.com 1.10,2013-06-17 17:42:00,
2013-06-17 18:57:00,62.4,53.0,29.98,ENE,60,3.0,5.0,72,0.00,,,0.09,weatherlink.com 1.10,2013-06-17 17:57:00,
2013-06-17 19:12:00,61.8,53.0,29.98,NNW,332,2.0,6.0,74,0.00,,,0.09,weatherlink.com 1.10,2013-06-17 18:12:00,
2013-06-17 19:27:00,61.6,53.0,29.98,NE,50,1.0,5.0,73,0.00,,,0.09,weatherlink.com 1.10,2013-06-17 18:27:00,
2013-06-17 19:42:00,61.7,53.0,29.98,North,356,0.0,4.0,72,0.00,,,0.09,weatherlink.com 1.10,2013-06-17 18:42:00,
2013-06-17 19:57:00,61.8,52.0,29.98,NW,323,1.0,7.0,71,0.00,,,0.09,weatherlink.com 1.10,2013-06-17 18:57:00,
2013-06-17 20:12:00,61.4,52.0,29.98,SSE,162,0.0,4.0,72,0.00,,,0.09,weatherlink.com 1.10,2013-06-17 19:12:00,
2013-06-17 20:27:00,61.3,52.0,29.98,North,350,2.0,4.0,72,0.00,,,0.09,weatherlink.com 1.10,2013-06-17 19:27:00,
2013-06-17 20:42:00,60.5,52.0,29.99,North,351,2.0,6.0,73,0.00,,,0.09,weatherlink.com 1.10,2013-06-17 19:42:00,
2013-06-17 20:57:00,60.2,52.0,29.99,ENE,60,0.0,3.0,74,0.00,,,0.09,weatherlink.com 1.10,2013-06-17 19:57:00,
2013-06-17 21:12:00,59.3,52.0,29.99,North,352,1.0,4.0,76,0.00,,,0.09,weatherlink.com 1.10,2013-06-17 20:12:00,
2013-06-17 21:28:00,58.4,52.0,30.00,North,351,3.0,5.0,78,0.00,,,0.09,weatherlink.com 1.10,2013-06-17 20:28:00,
2013-06-17 21:43:00,58.2,52.0,30.00,NE,34,0.0,3.0,79,0.00,,,0.09,weatherlink.com 1.10,2013-06-17 20:43:00,
2013-06-17 21:58:00,57.8,52.0,30.00,West,276,0.0,3.0,80,0.00,,,0.09,weatherlink.com 1.10,2013-06-17 20:58:00,
2013-06-17 22:13:00,57.5,52.0,30.00,North,11,0.0,3.0,81,0.00,,,0.09,weatherlink.com 1.10,2013-06-17 21:13:00,
2013-06-17 22:28:00,57.0,52.0,29.99,NNW,330,0.0,0.0,82,0.00,,,0.09,weatherlink.com 1.10,2013-06-17 21:28:00,
2013-06-17 22:43:00,56.3,51.0,29.99,NE,41,0.0,0.0,83,0.00,,,0.09,weatherlink.com 1.10,2013-06-17 21:43:00,
2013-06-17 22:58:00,55.9,51.0,29.98,NE,51,0.0,0.0,84,0.00,,,0.09,weatherlink.com 1.10,2013-06-17 21:58:00,
2013-06-17 23:13:00,55.7,51.0,29.98,ENE,74,0.0,0.0,85,0.00,,,0.09,weatherlink.com 1.10,2013-06-17 22:13:00,
2013-06-17 23:28:00,55.5,51.0,29.98,ENE,68,0.0,0.0,84,0.00,,,0.09,weatherlink.com 1.10,2013-06-17 22:28:00,
2013-06-17 23:43:00,55.4,51.0,29.98,SW,225,0.0,0.0,85,0.00,,,0.09,weatherlink.com 1.10,2013-06-17 22:43:00,
2013-06-17 23:58:00,55.1,51.0,29.98,SE,132,0.0,0.0,85,0.00,,,0.09,weatherlink.com 1.10,2013-06-17 22:58:00,